Tracking 35055 objects as of 18-Aug-2026
HD Live streaming from Space Station
objects crossing your sky now

FRONTIERSAT

Track FRONTIERSAT now!
10-day predictions
FRONTIERSAT is classified as:


NORAD ID: 69015
Int'l Code: 2026-100AM
Launch date: May 3, 2026
Source: Canada (CA)
Launch site: AIR FORCE WESTERN TEST RANGE (AFWTR)

Uplink (MHz):
Downlink (MHz): 436.150
Beacon (MHz):
Mode: 9k6_GMSK FSK*
Call sign:
Status: Active


Uplink (MHz):
Downlink (MHz): 436.150
Beacon (MHz):
Mode: 9k6_GMSK FSK*
Call sign:
Status: Active

Your satellite tracking list
Your tracking list is empty




NASA's NSSDC Master Catalog

Two Line Element Set (TLE):
1 69015U 26100AM  26230.51162291  .00007491  00000-0  32537-3 0  9994
2 69015  97.3907 127.3529 0008036 170.2508 189.8886 15.22562935 16305
Source of the keplerian elements: AFSPC